Hourly Weather Barnstable

Today, 24 November, Tuesday

Time Temperature Precipitation Wind Pressure Humidity
00:00 0°C° 0 mm 10 mps 760 mmHg 59%
01:00 0°C° 0 mm 9 mps 761 mmHg 65%
02:00 0°C° 0 mm 9 mps 761 mmHg 65%
03:00 0°C° 0 mm 9 mps 762 mmHg 65%
04:00 -1°C° 0 mm 9 mps 763 mmHg 65%
05:00 -1°C° 0 mm 9 mps 763 mmHg 66%
06:00 -1°C° 0 mm 8 mps 764 mmHg 67%
07:00 -1°C° 0 mm 8 mps 765 mmHg 75%
08:00 0°C° 0 mm 8 mps 765 mmHg 68%
09:00 +1°C° 0 mm 8 mps 766 mmHg 61%
10:00 +2°C° 0 mm 9 mps 767 mmHg 54%
11:00 +4°C° 0 mm 8 mps 767 mmHg 51%
12:00 +4°C° 0 mm 8 mps 767 mmHg 47%
13:00 +5°C° 0 mm 7 mps 767 mmHg 44%
14:00 +4°C° 0 mm 7 mps 767 mmHg 46%
15:00 +4°C° 0 mm 7 mps 768 mmHg 47%
16:00 +3°C° 0 mm 6 mps 769 mmHg 49%
17:00 +3°C° 0 mm 6 mps 770 mmHg 47%
18:00 +2°C° 0 mm 6 mps 771 mmHg 46%
19:00 +1°C° 0 mm 6 mps 772 mmHg 45%
20:00 +1°C° 0 mm 5 mps 772 mmHg 46%
21:00 0°C° 0 mm 4 mps 772 mmHg 47%
22:00 +1°C° 0 mm 3 mps 772 mmHg 48%
23:00 +1°C° 0 mm 3 mps 773 mmHg 52%

Tomorrow, 25 November, Wednesday

Time Temperature Precipitation Wind Pressure Humidity
00:00 0°C° 0 mm 3 mps 773 mmHg 55%
01:00 +1°C° 0 mm 2 mps 773 mmHg 58%
02:00 0°C° 0 mm 3 mps 773 mmHg 60%
03:00 +1°C° 0 mm 3 mps 773 mmHg 63%
04:00 +1°C° 0 mm 3 mps 773 mmHg 65%
05:00 +1°C° 0 mm 3 mps 773 mmHg 66%
06:00 +1°C° 0 mm 4 mps 773 mmHg 67%
07:00 +1°C° 0 mm 4 mps 773 mmHg 67%
08:00 +3°C° 0 mm 5 mps 773 mmHg 67%
09:00 +5°C° 0 mm 5 mps 773 mmHg 66%
10:00 +7°C° 0 mm 6 mps 772 mmHg 65%
11:00 +8°C° 0 mm 6 mps 772 mmHg 66%
12:00 +9°C° 0 mm 6 mps 771 mmHg 67%
13:00 +10°C° 0 mm 6 mps 770 mmHg 69%
14:00 +10°C° 0 mm 6 mps 770 mmHg 73%
15:00 +10°C° 0 mm 6 mps 769 mmHg 78%
16:00 +10°C° 0 mm 6 mps 769 mmHg 82%
17:00 +10°C° 0 mm 5 mps 769 mmHg 84%
18:00 +10°C° 0 mm 5 mps 769 mmHg 87%
19:00 +10°C° 0 mm 5 mps 768 mmHg 89%
20:00 +10°C° 0 mm 5 mps 768 mmHg 89%
21:00 +11°C° 0 mm 4 mps 768 mmHg 89%
22:00 +11°C° 0 mm 4 mps 768 mmHg 89%
23:00 +11°C° 0 mm 3 mps 768 mmHg 91%

Day after tomorrow, 26 November, Thursday

Time Temperature Precipitation Wind Pressure Humidity
00:00 +11°C° 0 mm 3 mps 768 mmHg 93%
01:00 +12°C° 0 mm 2 mps 767 mmHg 95%
02:00 +12°C° 0 mm 2 mps 767 mmHg 95%
03:00 +12°C° 0 mm 2 mps 767 mmHg 95%
04:00 +12°C° 0 mm 2 mps 767 mmHg 95%
05:00 +12°C° 0 mm 3 mps 766 mmHg 95%
06:00 +12°C° 0 mm 4 mps 766 mmHg 95%
07:00 +13°C° 0 mm 4 mps 766 mmHg 94%
08:00 +13°C° 0.1 mm 5 mps 766 mmHg 92%
09:00 +14°C° 0.1 mm 5 mps 766 mmHg 90%
10:00 +14°C° 0.1 mm 6 mps 765 mmHg 88%
11:00 +14°C° 0.4 mm 5 mps 765 mmHg 89%
12:00 +14°C° 0.4 mm 5 mps 764 mmHg 90%
13:00 +15°C° 0.4 mm 5 mps 763 mmHg 92%
14:00 +14°C° 2 mm 6 mps 763 mmHg 93%
15:00 +14°C° 2 mm 6 mps 762 mmHg 95%
16:00 +14°C° 2 mm 6 mps 762 mmHg 97%
17:00 +14°C° 1.3 mm 5 mps 762 mmHg 96%
18:00 +14°C° 1.3 mm 4 mps 762 mmHg 96%
19:00 +14°C° 1.3 mm 3 mps 762 mmHg 96%
20:00 +13°C° 0 mm 3 mps 762 mmHg 96%
21:00 +14°C° 0 mm 2 mps 761 mmHg 97%
22:00 +14°C° 0 mm 1 mps 761 mmHg 97%
23:00 +13°C° 0.1 mm 1 mps 761 mmHg 97%

27 November, Friday

Time Temperature Precipitation Wind Pressure Humidity
00:00 +13°C° 0.1 mm 1 mps 761 mmHg 97%
01:00 +12°C° 0.1 mm 0 mps 760 mmHg 97%
02:00 +13°C° 0.1 mm 1 mps 760 mmHg 97%
03:00 +13°C° 0.1 mm 2 mps 760 mmHg 97%
04:00 +13°C° 0.1 mm 2 mps 760 mmHg 98%
05:00 +12°C° 0 mm 2 mps 760 mmHg 97%
06:00 +12°C° 0 mm 2 mps 761 mmHg 96%
07:00 +12°C° 0 mm 2 mps 761 mmHg 95%
08:00 +12°C° 0 mm 2 mps 761 mmHg 93%
09:00 +13°C° 0 mm 2 mps 761 mmHg 90%
10:00 +13°C° 0 mm 2 mps 761 mmHg 88%
11:00 +14°C° 0 mm 1 mps 761 mmHg 86%
12:00 +14°C° 0 mm 1 mps 760 mmHg 84%
13:00 +15°C° 0 mm 1 mps 760 mmHg 82%
14:00 +14°C° 0 mm 1 mps 760 mmHg 85%
15:00 +14°C° 0 mm 1 mps 760 mmHg 88%
16:00 +14°C° 0 mm 1 mps 760 mmHg 90%
17:00 +14°C° 0.1 mm 2 mps 760 mmHg 90%
18:00 +14°C° 0.1 mm 2 mps 760 mmHg 90%
19:00 +12°C° 0.1 mm 3 mps 760 mmHg 90%
20:00 +12°C° 0 mm 3 mps 759 mmHg 88%
21:00 +12°C° 0 mm 3 mps 759 mmHg 86%
22:00 +12°C° 0 mm 4 mps 759 mmHg 85%
23:00 +12°C° 0 mm 4 mps 759 mmHg 83%

28 November, Saturday

Time Temperature Precipitation Wind Pressure Humidity
00:00 +11°C° 0 mm 4 mps 759 mmHg 82%
01:00 +11°C° 0 mm 4 mps 758 mmHg 81%
02:00 +10°C° 0 mm 4 mps 758 mmHg 83%
03:00 +10°C° 0 mm 4 mps 758 mmHg 84%
04:00 +8°C° 0 mm 4 mps 759 mmHg 86%
05:00 +8°C° 0 mm 4 mps 759 mmHg 85%
06:00 +8°C° 0 mm 4 mps 759 mmHg 84%
07:00 +8°C° 0 mm 3 mps 759 mmHg 84%
08:00 +10°C° 0 mm 4 mps 759 mmHg 78%
09:00 +11°C° 0 mm 4 mps 759 mmHg 73%
10:00 +12°C° 0 mm 4 mps 759 mmHg 68%
11:00 +12°C° 0 mm 5 mps 759 mmHg 68%
12:00 +13°C° 0 mm 5 mps 758 mmHg 68%
13:00 +13°C° 0 mm 5 mps 758 mmHg 68%
14:00 +13°C° 0 mm 5 mps 758 mmHg 72%
15:00 +12°C° 0 mm 5 mps 758 mmHg 77%
16:00 +10°C° 0 mm 5 mps 758 mmHg 81%
17:00 +10°C° 0 mm 5 mps 758 mmHg 80%
18:00 +9°C° 0 mm 5 mps 759 mmHg 78%
19:00 +8°C° 0 mm 6 mps 759 mmHg 77%
20:00 +8°C° 0 mm 6 mps 760 mmHg 74%
21:00 +7°C° 0 mm 6 mps 760 mmHg 71%
22:00 +5°C° 0 mm 7 mps 761 mmHg 68%
23:00 +4°C° 0 mm 6 mps 761 mmHg 67%

29 November, Sunday

Time Temperature Precipitation Wind Pressure Humidity
00:00 +4°C° 0 mm 6 mps 762 mmHg 66%
01:00 +3°C° 0 mm 6 mps 763 mmHg 66%
02:00 +3°C° 0 mm 6 mps 763 mmHg 66%
03:00 +2°C° 0 mm 6 mps 764 mmHg 67%
04:00 +2°C° 0 mm 6 mps 764 mmHg 67%
05:00 +2°C° 0 mm 5 mps 765 mmHg 68%
06:00 +2°C° 0 mm 5 mps 765 mmHg 69%
07:00 +1°C° 0 mm 5 mps 765 mmHg 70%
08:00 +4°C° 0 mm 3 mps 766 mmHg 64%
09:00 +6°C° 0 mm 2 mps 766 mmHg 58%
10:00 +9°C° 0 mm 1 mps 766 mmHg 52%
11:00 +9°C° 0 mm 1 mps 766 mmHg 51%
12:00 +10°C° 0 mm 1 mps 766 mmHg 49%
13:00 +10°C° 0 mm 1 mps 766 mmHg 48%
14:00 +10°C° 0 mm 1 mps 766 mmHg 51%
15:00 +9°C° 0 mm 1 mps 766 mmHg 55%
16:00 +9°C° 0 mm 1 mps 766 mmHg 58%
17:00 +7°C° 0 mm 2 mps 766 mmHg 61%
18:00 +7°C° 0 mm 2 mps 766 mmHg 64%
19:00 +6°C° 0 mm 2 mps 766 mmHg 67%
20:00 +5°C° 0 mm 3 mps 766 mmHg 70%
21:00 +5°C° 0 mm 4 mps 766 mmHg 73%
22:00 +5°C° 0 mm 4 mps 766 mmHg 76%
23:00 +6°C° 0 mm 5 mps 766 mmHg 78%
Show more

We Need Your Consent

Meteoprog and our Service Providers may store and access personal data such as cookies, device identifiers or other similar technologies on your device and process such data to personalise content and ads, as well as provide social media features and to analyse the traffic.

  • Store and/or access information on your device

    Cookies, device identifiers or other information can be stored or accessed on your device for the purposes indicated above.

  • Personalised ads and content, ad and content measurement, audience insights, and products development

    Ads and content can be personalised based on a profile. More data can be added to better personalise ads and content. Ad and content performance can be measured. Insights about the audience who saw the ads and content can be derived. Such data can be used to develop or improve user’s experience, systems and software.

By clicking ‘I Agree’ you will allow the use of indicated cookies, device identifiers, web beacons or other similar technologies. Your settings can be changed in the browser on your device.

For certain purposes, legitimate interests may be relied on, rather than consent. You can read more about this in our Privacy and Cookie Policy.